Погода в Лысково

Россия / Нижегородская область     56°01′16″N   45°02′27″E
темп.,
°C
ветер,
м/с
пор.,
м/с
влажн.,
%
обл.,
%
осадки,
мм/ч
давл.,
гПа
погр.,
м
10 мая, пн
пн1000:00+9сз2597100 0.1 1013231
03:00+9сз3698100 1.8 1015265
06:00+8ссз3698100 0.8 1017276
09:00+8ссз4797100 1.6 1019306
12:00+8с5797100 1.1 1022343
15:00+9с5794100 1.3 1024390
18:00+10с5691100 0.0 1025436
21:00+8с599698 0.0 1026344
11 мая, вт
вт1100:00+8ссв4998100 0.0 1026306
03:00+7ссв5109794 0.0 1026320
06:00+8ссв599346 0.0 1027296
09:00+14св58785 0.0 1027501
12:00+19всв566335 0.0 1027870
15:00+22всв56565 0.0 10261325
18:00+20всв377099 0.2 1026164
21:00+15всв3488100 0.3 102770
12 мая, ср
ср1200:00+13всв3692100 0.1 1027111
03:00+12всв359461 0.1 102774
06:00+14в398993 0.0 1027227
09:00+19в587091 0.0 1027504
12:00+22вюв685411 0.0 10261489
15:00+23юв59499 0.0 10262486
18:00+20юв48639 0.0 1026343
21:00+14юв396829 0.0 1026154
13 мая, чт
чт1300:00+15вюв386380 0.0 1026162
03:00+14юв3866100 0.1 1026162
06:00+15в3974100 0.1 1026211
09:00+19вюв59628 0.1 1025545
12:00+22вюв794555 0.0 10241277
15:00+22юв5851100 0.0 10231419
18:00+18вюв3775100 0.1 1022170
21:00+18юв51269100 0.1 1022331
14 мая, пт
пт1400:00+15юв488214 0.0 1022130
03:00+15ююв2480100 0.0 102259
06:00+16юв368191 0.3 1022166
09:00+20ююв586211 0.3 1021489
12:00+24ююв58485 0.0 10201061
15:00+25ю5950100 0.0 10191514
18:00+22ю376935 0.0 1018228
21:00+18ю33805 0.0 101826